EDT,Max TemperatureF,Mean TemperatureF,Min TemperatureF,Max Dew PointF,MeanDew PointF,Min DewpointF,Max Humidity, Mean Humidity, Min Humidity, Max Sea Level PressureIn, Mean Sea Level PressureIn, Min Sea Level PressureIn, Max VisibilityMiles, Mean VisibilityMiles, Min VisibilityMiles, Max Wind SpeedMPH, Mean Wind SpeedMPH, Max Gust SpeedMPH,PrecipitationIn, CloudCover, Events, WindDirDegrees
2013-5-1,82,68,55,55,53,50,80,55,37,30.17,30.12,30.01,10,10,10,15,6,20,0.00,0,,152
2013-5-2,81,70,59,56,53,50,78,58,39,30.19,30.13,30.07,10,10,10,14,8,20,0.00,1,,135
2013-5-3,78,64,52,57,51,46,86,60,38,30.08,30.01,29.95,10,10,10,21,6,26,0.00,1,,122
2013-5-4,72,65,57,50,44,40,60,49,35,30.03,30.00,29.98,10,10,10,17,10,26,0.00,0,,99
2013-5-5,72,60,48,49,44,41,77,56,41,30.03,30.01,29.98,10,10,10,17,8,22,0.00,2,Rain,84
2013-5-6,75,64,54,51,46,39,64,51,38,30.02,29.98,29.95,10,10,10,10,6,,0.00,5,,77
2013-5-7,75,63,51,53,50,46,86,61,44,30.03,30.00,29.98,10,10,10,14,3,17,0.00,4,,60
2013-5-8,79,64,51,53,49,44,89,59,36,30.03,29.99,29.96,10,10,10,13,2,,0.00,1,,350
2013-5-9,80,64,48,57,50,46,90,63,32,29.99,29.95,29.88,10,10,6,14,3,,0.02,3,Rain,188
2013-5-10,66,57,48,59,54,43,90,83,68,29.91,29.83,29.77,10,8,2,21,10,24,0.30,7,Rain,255
2013-5-11,57,48,36,50,42,31,93,80,56,30.00,29.90,29.83,10,7,2,31,10,46,0.03,7,Rain,284
2013-5-12,50,44,35,33,29,26,83,61,39,30.14,30.07,30.00,10,10,10,20,10,29,0.00,3,,299
2013-5-13,59,46,34,33,29,18,89,55,22,30.20,30.15,30.09,10,10,10,13,3,21,0.00,2,Rain,351
2013-5-14,84,68,51,58,42,25,57,42,29,30.08,29.86,29.71,10,10,10,22,11,30,0.00,3,,194
2013-5-15,81,74,61,60,53,48,72,50,33,29.82,29.75,29.65,10,10,8,20,14,30,0.09,1,Rain-Thunderstorm,273
2013-5-16,82,66,51,52,47,42,92,54,26,29.98,29.90,29.82,10,10,6,9,2,,0.00,0,,326
2013-5-17,82,68,54,56,47,40,69,49,27,30.08,30.03,29.97,10,10,10,15,5,23,0.00,2,,103
2013-5-18,82,68,55,59,50,38,73,53,44,30.11,30.04,29.99,10,10,10,13,7,,0.00,4,,117
2013-5-19,87,72,57,61,57,48,74,56,41,30.00,29.93,29.83,10,10,10,12,6,,0.00,1,,144
2013-5-20,88,80,71,68,65,62,81,63,43,29.89,29.84,29.78,10,9,5,24,12,34,0.00,3,,185
2013-5-21,84,74,64,66,62,60,94,69,49,29.83,29.76,29.70,10,9,2,22,14,37,0.35,3,Rain-Thunderstorm,218
2013-5-22,78,69,63,63,61,56,88,76,54,29.74,29.70,29.65,10,9,2,28,11,33,0.17,6,Rain-Thunderstorm,213
2013-5-23,63,56,48,58,51,43,94,85,72,30.19,29.93,29.73,10,7,1,21,11,28,0.05,8,Rain,302
2013-5-24,61,50,39,43,38,35,87,65,41,30.38,30.32,30.19,10,10,10,15,9,20,0.00,2,,342
2013-5-25,69,52,37,45,38,35,93,59,33,30.39,30.33,30.26,10,10,10,7,3,,0.00,1,,351
2013-5-26,72,58,46,44,39,36,83,50,29,30.32,30.26,30.18,10,10,10,13,5,17,0.00,1,,126
2013-5-27,62,56,51,55,50,34,94,82,36,30.18,30.06,29.93,10,6,2,20,11,26,0.57,8,Rain,114
2013-5-28,81,68,57,67,62,55,94,79,64,29.94,29.88,29.81,10,8,1,29,10,40,0.45,6,Rain-Thunderstorm,200
2013-5-29,84,74,64,67,63,60,88,70,51,29.99,29.93,29.86,10,10,4,22,13,40,0.23,2,Rain-Thunderstorm,206
2013-5-30,86,78,71,68,64,61,71,62,51,30.02,29.97,29.91,10,10,9,22,11,31,0.02,2,Rain-Thunderstorm,180
2013-5-31,77,72,66,67,64,61,87,77,66,29.96,29.90,29.81,10,9,3,21,13,33,0.30,5,Rain-Thunderstorm,183